Fortuna, CA

8:34 AM PST on January 18, 2017 (GMT -0800)
Rohnerville

Weather History for KFOT - July, 2013

Change the Weather History Date:

Tuesday, July 23, 2013

  Actual Average (KEKA) Record (KEKA)
Temperature  
Mean Temperature 54 °F -  
Max Temperature 62 °F 62 °F 72 °F (2007)
Min Temperature 46 °F 52 °F 46 °F (1887)
Degree Days  
Heating Degree Days 11    
Growing Degree Days 4 (Base 50)    
Moisture  
Dew Point 50 °F    
Average Humidity 92    
Maximum Humidity 100    
Minimum Humidity 72    
Precipitation  
Precipitation 0.00 in - - ()
Sea Level Pressure  
Sea Level Pressure 30.02 in    
Wind  
Wind Speed - (North)    
Max Wind Speed -    
Max Gust Speed -    
Visibility 7 miles    
Events      
Averages and records for this station are not official NWS values.
T = Trace of Precipitation, MM = Missing Value Source: NWS Daily Summary

Daily Weather History Graph

Daily Weather History Graph

Search for Another Location

Airport or City:

Trip Planner

Search our weather history database for the weather conditions in past years. The results will help you decide how hot, cold, wet, or windy it might be!

Date:

Astronomy

Jul. 23, 2013 Rise Set
Actual Time 6:05 AM PDT 8:39 PM PDT
Civil Twilight 5:34 AM PDT 9:11 PM PDT
Nautical Twilight 4:54 AM PDT 9:50 PM PDT
Astronomical Twilight 4:10 AM PDT 10:34 PM PDT
Moon 9:11 PM PDT (7/23) 7:21 AM PDT (7/23)
Length of Visible Light 15h 37m
Length of Day
14h 34m
Full, 98% of the Moon is Illuminated
Jul 23
Full
Jul 29
Last Quarter
Aug 6
New
Aug 14
First Quarter
Aug 20
Full

Hourly Weather History & Observations

Time (PDT) Temp. Dew Point Humidity Pressure Visibility Wind Dir Wind Speed Gust Speed Precip Events Conditions
12:15 AM 48.2 °F 48.2 °F 100% 30.00 in 4.0 mi North - - N/A   Overcast
12:35 AM 48.2 °F 48.2 °F 100% 30.00 in 0.8 mi North - - N/A   Overcast
12:55 AM 48.2 °F 48.2 °F 100% 30.01 in 0.2 mi North - - N/A   Overcast
1:15 AM 48.2 °F 48.2 °F 100% 30.00 in 0.2 mi North - - N/A   Overcast
1:35 AM 48.2 °F 48.2 °F 100% 30.00 in 0.2 mi North - - N/A   Overcast
1:55 AM 48.2 °F 48.2 °F 100% 30.00 in 0.2 mi North - - N/A   Overcast
2:15 AM 48.2 °F 48.2 °F 100% 30.00 in 0.2 mi North - - N/A   Overcast
2:35 AM 48.2 °F 48.2 °F 100% 29.99 in 0.2 mi North - - N/A   Overcast
2:55 AM 48.2 °F 48.2 °F 100% 29.98 in 0.2 mi North - - N/A   Overcast
3:15 AM 48.2 °F 48.2 °F 100% 29.98 in 0.2 mi North - - N/A   Overcast
3:35 AM 48.2 °F 48.2 °F 100% 29.99 in 0.2 mi North - - N/A   Overcast
3:55 AM 48.2 °F 48.2 °F 100% 29.99 in 0.2 mi North - - N/A   Overcast
4:15 AM 48.2 °F 48.2 °F 100% 29.98 in 0.2 mi North - - N/A   Overcast
4:35 AM 48.2 °F 48.2 °F 100% 29.97 in 0.2 mi North - - N/A   Overcast
4:55 AM 48.2 °F 48.2 °F 100% 29.97 in 0.2 mi North - - N/A   Overcast
5:15 AM 48.2 °F 48.2 °F 100% 29.97 in 0.2 mi North - - N/A   Overcast
5:35 AM 48.2 °F 48.2 °F 100% 29.96 in 0.2 mi North - - N/A   Overcast
5:55 AM 46.4 °F 46.4 °F 100% 29.97 in 0.2 mi North - - N/A   Overcast
6:15 AM 46.4 °F 46.4 °F 100% 29.97 in 0.8 mi North - - N/A   Mostly Cloudy
6:35 AM 46.4 °F 46.4 °F 100% 29.97 in 0.2 mi North - - N/A   Overcast
6:55 AM 48.2 °F 48.2 °F 100% 29.97 in 0.2 mi North - - N/A   Overcast
7:15 AM 48.2 °F 48.2 °F 100% 29.98 in 0.2 mi North - - N/A   Overcast
7:35 AM 48.2 °F 48.2 °F 100% 29.98 in 0.2 mi North - - N/A   Overcast
7:55 AM 48.2 °F 48.2 °F 100% 29.99 in 0.8 mi North - - N/A   Overcast
8:15 AM 50.0 °F 50.0 °F 100% 30.00 in 9.0 mi North - - N/A   Overcast
8:35 AM 50.0 °F 50.0 °F 100% 30.00 in 4.0 mi North - - N/A   Overcast
8:55 AM 50.0 °F 50.0 °F 100% 30.02 in 6.0 mi North - - N/A   Mostly Cloudy
9:15 AM 50.0 °F 50.0 °F 100% 30.03 in 10.0 mi North - - N/A   Partly Cloudy
9:35 AM 51.8 °F 51.8 °F 100% 30.03 in 10.0 mi North - - N/A   Clear
9:55 AM 51.8 °F 51.8 °F 100% 30.03 in 10.0 mi North - - N/A   Scattered Clouds
10:15 AM 50.0 °F 50.0 °F 100% 30.03 in 6.0 mi North - - N/A   Overcast
10:35 AM 51.8 °F 50.0 °F 94% 30.03 in 8.0 mi North - - N/A   Overcast
10:55 AM 53.6 °F 50.0 °F 88% 30.04 in 10.0 mi North - - N/A   Overcast
11:15 AM 53.6 °F 50.0 °F 88% 30.04 in 10.0 mi North - - N/A   Overcast
11:35 AM 53.6 °F 51.8 °F 94% 30.04 in 10.0 mi North - - N/A   Mostly Cloudy
11:55 AM 55.4 °F 51.8 °F 88% 30.04 in 10.0 mi North - - N/A   Partly Cloudy
12:15 PM 57.2 °F 51.8 °F 82% 30.04 in 10.0 mi North - - N/A   Clear
12:35 PM 59.0 °F 53.6 °F 82% 30.03 in 10.0 mi North - - N/A   Clear
12:55 PM 59.0 °F 53.6 °F 82% 30.03 in 10.0 mi North - - N/A   Clear
1:15 PM 60.8 °F 53.6 °F 77% 30.02 in 10.0 mi North - - N/A   Clear
1:35 PM 60.8 °F 53.6 °F 77% 30.02 in 10.0 mi North - - N/A   Clear
1:55 PM 59.0 °F 53.6 °F 82% 30.03 in 10.0 mi North - - N/A   Clear
2:15 PM 57.2 °F 53.6 °F 88% 30.03 in 10.0 mi North - - N/A   Clear
2:35 PM 59.0 °F 53.6 °F 82% 30.03 in 10.0 mi North - - N/A   Clear
2:55 PM 59.0 °F 53.6 °F 82% 30.03 in 10.0 mi North - - N/A   Clear
3:15 PM 60.8 °F 53.6 °F 77% 30.03 in 10.0 mi North - - N/A   Clear
3:35 PM 62.6 °F 53.6 °F 72% 30.03 in 10.0 mi North - - N/A   Clear
3:55 PM 62.6 °F 53.6 °F 72% 30.03 in 10.0 mi North - - N/A   Clear
4:15 PM 59.0 °F 53.6 °F 82% 30.03 in 10.0 mi North - - N/A   Clear
4:35 PM 59.0 °F 53.6 °F 82% 30.03 in 10.0 mi North - - N/A   Clear
4:55 PM 57.2 °F 53.6 °F 88% 30.03 in 10.0 mi North - - N/A   Clear
5:15 PM 59.0 °F 53.6 °F 82% 30.03 in 10.0 mi North - - N/A   Clear
5:35 PM 57.2 °F 53.6 °F 88% 30.03 in 10.0 mi North - - N/A   Clear
5:55 PM 57.2 °F 53.6 °F 88% 30.03 in 10.0 mi North - - N/A   Clear
6:15 PM 55.4 °F 50.0 °F 82% 30.03 in 10.0 mi North - - N/A   Clear
6:35 PM 55.4 °F 50.0 °F 82% 30.03 in 10.0 mi North - - N/A   Clear
6:55 PM 53.6 °F 50.0 °F 88% 30.03 in 10.0 mi North - - N/A   Clear
7:15 PM 53.6 °F 50.0 °F 88% 30.04 in 10.0 mi North - - N/A   Clear
7:35 PM 53.6 °F 50.0 °F 88% 30.04 in 10.0 mi North - - N/A   Clear
7:55 PM 53.6 °F 50.0 °F 88% 30.04 in 10.0 mi North - - N/A   Clear
8:15 PM 53.6 °F 50.0 °F 88% 30.04 in 10.0 mi North - - N/A   Clear
8:35 PM 53.6 °F 50.0 °F 88% 30.04 in 10.0 mi North - - N/A   Clear
8:55 PM 53.6 °F 50.0 °F 88% 30.04 in 10.0 mi North - - N/A   Clear
9:15 PM 51.8 °F 50.0 °F 94% 30.04 in 10.0 mi North - - N/A   Clear
9:35 PM 53.6 °F 50.0 °F 88% 30.04 in 10.0 mi North - - N/A   Clear
9:55 PM 51.8 °F 50.0 °F 94% 30.04 in 10.0 mi North - - N/A   Clear
10:15 PM 53.6 °F 50.0 °F 88% 30.04 in 10.0 mi North - - N/A   Clear
10:35 PM 53.6 °F 50.0 °F 88% 30.04 in 10.0 mi North - - N/A   Clear
10:55 PM 53.6 °F 50.0 °F 88% 30.03 in 10.0 mi North - - N/A   Clear
11:15 PM 53.6 °F 50.0 °F 88% 30.03 in 10.0 mi North - - N/A   Clear
11:35 PM 53.6 °F 50.0 °F 88% 30.02 in 10.0 mi North - - N/A   Clear
11:55 PM 53.6 °F 50.0 °F 88% 30.02 in 10.0 mi North - - N/A   Clear